Regional Weather Roundup
Issued by NWS Little Rock, AR

Home | Current Version | Previous Version | Text Only | Print | Product List | Glossary On
Versions: 1 2 3 4 5 6 7 8 9 10 11 12 13 14 15 16 17 18 19 20 21 22 23 24 25 26 27 28 29 30 31 32 33 34 35 36 37 38 39 40 41 42 43 44 45 46 47 48 49 50
038
ASUS44 KLZK 270105
RWRLZK

WEATHER ROUNDUP FOR ARKANSAS
NATIONAL WEATHER SERVICE LITTLE ROCK AR
800 PM CDT TUE JUL 26 2016

NOTE: "FAIR" INDICATES FEW OR NO CLOUDS BELOW 12,000 FEET WITH NO
SIGNIFICANT WEATHER AND/OR OBSTRUCTIONS TO VISIBILITY.

ARZ001-003-010-029-270200-
NORTHWEST ARKANSAS

CITY           SKY/WX    TMP DP  RH WIND       PRES   REMARKS
FAYETTEVILLE   RAIN      71  71 100 CALM      30.01S FOG
FORT SMITH     CLOUDY    81  74  79 N7        29.94R HX  86
HARRISON       LGT RAIN  77  75  93 MISG      30.03R
BENTONVILLE    CLOUDY    75  70  83 S6        30.00F
ROGERS         LGT RAIN  75  73  93 SE3       30.01F
SILOAM SPGS    CLOUDY    75  64  69 CALM      30.01F
HIGHFILL       LGT RAIN  75  75 100 SE6       30.00F
SPRINGDALE     LGT RAIN  73  72  94 CALM      30.03S FOG
$$

ARZ004-005-016-270200-
NORTH CENTRAL ARKANSAS

CITY           SKY/WX    TMP DP  RH WIND       PRES   REMARKS
BATESVILLE     MOCLDY    81  73  78 W5        29.96R HX  85
FLIPPIN        CLOUDY    79  73  83 W3        29.97S
MTN HOME       CLOUDY    75  74  96 CALM      29.99S
$$

ARZ040-041-270200-
WEST CENTRAL ARKANSAS

CITY           SKY/WX    TMP DP  RH WIND       PRES   REMARKS
MENA           CLOUDY    81  79  94 S5        29.96R HX  89
MOUNT IDA      CLEAR     87  72  60 CALM      29.92R HX  93
$$

ARZ009-017-025-026-028-270200-
NORTHEAST ARKANSAS

CITY           SKY/WX    TMP DP  RH WIND       PRES   REMARKS
CORNING          N/A     81  77  89 CALM      29.96R HX  88
JONESBORO      CLOUDY    81  74  79 NE10      29.95R HX  86
NEWPORT        MOCLDY    83  75  76 E5        29.95R HX  90
WALNUT RIDGE   PTCLDY    81  73  78 NE9       29.95R HX  85
BLYTHEVILLE    CLOUDY    81  76  84 N10       29.95R HX  87
$$

ARZ022-023-033-042-044-270200-
CENTRAL ARKANSAS

CITY           SKY/WX    TMP DP  RH WIND       PRES   REMARKS
LITTLE ROCK    PTCLDY    91  71  51 SE5       29.92R HX  97
N LITTLE ROCK    N/A     89  69  52 SE3       29.90S HX  93
JACKSONVILLE   CLEAR     90  73  57 SE2       29.92S HX  97
SEARCY         CLEAR     86  75  69 CALM      29.93S HX  95
HOT SPRINGS    CLEAR     89  70  53 E6        29.93R HX  94
RUSSELLVILLE   MOCLDY    80  73  79 N7        29.93R
$$

ARZ036-270200-
EAST ARKANSAS

CITY           SKY/WX    TMP DP  RH WIND       PRES   REMARKS
WEST MEMPHIS   CLOUDY    74  73  97 CALM      29.91F
$$

ARZ050-053-066-070-073-270200-
SOUTHWEST ARKANSAS

CITY           SKY/WX    TMP DP  RH WIND       PRES   REMARKS
CAMDEN         CLEAR     81  75  83 CALM      29.90S HX  86
TEXARKANA      PTCLDY    89  71  55 SE5       29.90R HX  95
EL DORADO      CLEAR     88  70  55 E3        29.91R HX  93
DE QUEEN       MOCLDY    87  75  67 N3        29.88R HX  96
$$

ARZ056-057-069-270200-
SOUTHEAST ARKANSAS

CITY           SKY/WX    TMP DP  RH WIND       PRES   REMARKS
PINE BLUFF     CLEAR     88  75  65 CALM      29.91S HX  97
STUTTGART      CLEAR     90  70  51 E6        29.92F HX  95
MONTICELLO     CLEAR     89  77  67 CALM      29.91R HX 101

$$






USA.gov is the U.S. government's official web portal to all federal, state and local government web resources and services.